Weather History for Limon, CO

Change the Weather History Date:

Wednesday, January 22, 2014

  Actual Average Record
Temperature  
Mean Temperature 27 °F -  
Max Temperature 43 °F - 66 °F (2009)
Min Temperature 10 °F - -8 °F (2008)
Degree Days  
Heating Degree Days 38    
Month to date heating degree days 870  
Cooling Degree Days 0    
Month to date cooling degree days 0  
Moisture  
Dew Point 15 °F    
Average Humidity 63    
Maximum Humidity 92    
Minimum Humidity 34    
Precipitation  
Precipitation T in - 0.01 in (2012)
Month to date precipitation 0.30  
Year to date precipitation 0.30  
Sea Level Pressure  
Sea Level Pressure 30.20 in    
Wind  
Wind Speed 6 mph (ENE)    
Max Wind Speed 17 mph    
Max Gust Speed 21 mph    
Visibility 9 miles    
Events Snow    
T = Trace of Precipitation, MM = Missing Value Source: NWS Daily Summary

Daily Weather History Graph

Daily Weather History Graph

Search for Another Location

Airport:

Trip Planner

Search our weather history database for the weather conditions in past years. The results will help you decide how hot, cold, wet, or windy it might be!

Date:

Astronomy

Jan. 22, 2014 Rise Set
Actual Time 7:09 AM MST 5:03 PM MST
Civil Twilight 6:40 AM MST 5:32 PM MST
Nautical Twilight 6:07 AM MST 6:05 PM MST
Astronomical Twilight 5:35 AM MST 6:37 PM MST
Moon 11:35 PM MST (1/22) 10:14 AM MST (1/22)
Length of Visible Light 10h 52m
Length of Day
9h 54m
Waning Gibbous, 65% of the Moon is Illuminated
Jan 22
Waning Gibbous
Jan 23
Last Quarter
Jan 30
New
Feb 6
First Quarter
Feb 14
Full

Hourly Weather History & Observations

Time (MST) Temp. Windchill Dew Point Humidity Pressure Visibility Wind Dir Wind Speed Gust Speed Precip Events Conditions
12:55 AM 14.0 °F 6.5 °F 10.0 °F 84% 30.14 in 10.0 mi NNE 4.6 mph - N/A   Clear
1:55 AM 16.0 °F - 10.9 °F 81% 30.13 in 10.0 mi Calm Calm - N/A   Clear
2:55 AM 12.0 °F 1.5 °F 9.0 °F 88% 30.15 in 10.0 mi North 6.9 mph - N/A   Clear
3:55 AM 14.0 °F 5.1 °F 10.0 °F 84% 30.14 in 10.0 mi NNW 5.8 mph - N/A   Clear
4:55 AM 12.0 °F 2.7 °F 9.0 °F 88% 30.19 in 10.0 mi North 5.8 mph - N/A   Clear
5:55 AM 12.9 °F - 9.0 °F 84% 30.22 in 10.0 mi Calm Calm - N/A   Clear
6:55 AM 10.0 °F 3.6 °F 7.0 °F 87% 30.25 in 10.0 mi WNW 3.5 mph - N/A   Clear
7:55 AM 18.0 °F - 12.0 °F 78% 30.27 in 10.0 mi Calm Calm - N/A   Clear
8:55 AM 30.9 °F - 18.0 °F 59% 30.22 in 10.0 mi Calm Calm - N/A   Clear
9:55 AM 37.0 °F - 17.1 °F 44% 30.19 in 10.0 mi Calm Calm - N/A   Clear
10:55 AM 41.0 °F 36.4 °F 16.0 °F 36% 30.17 in 10.0 mi Variable 6.9 mph - N/A   Clear
11:55 AM 39.9 °F 34.5 °F 19.0 °F 43% 30.15 in 10.0 mi ENE 8.1 mph - N/A   Clear
12:55 PM 41.0 °F 38.0 °F 18.0 °F 40% 30.12 in 10.0 mi East 4.6 mph - N/A   Clear
1:55 PM 41.0 °F 39.0 °F 17.1 °F 38% 30.09 in 10.0 mi SSE 3.5 mph - N/A   Clear
2:55 PM 42.1 °F 36.1 °F 18.0 °F 38% 30.11 in 10.0 mi NE 10.4 mph - N/A   Clear
3:55 PM 37.9 °F 30.0 °F 21.0 °F 51% 30.14 in 10.0 mi ENE 12.7 mph - N/A   Clear
4:55 PM 33.1 °F 23.0 °F 19.9 °F 59% 30.18 in 10.0 mi ENE 15.0 mph - N/A   Mostly Cloudy
5:55 PM 28.9 °F 17.7 °F 19.0 °F 67% 30.22 in 10.0 mi East 15.0 mph - N/A   Scattered Clouds
6:55 PM 26.1 °F 16.2 °F 18.0 °F 71% 30.29 in 10.0 mi East 10.4 mph - N/A   Clear
7:55 PM 26.1 °F 15.6 °F 19.0 °F 75% 30.28 in 10.0 mi East 11.5 mph - N/A   Overcast
8:55 PM 24.1 °F 11.5 °F 19.0 °F 81% 30.25 in 10.0 mi East 15.0 mph - N/A   Overcast
9:24 PM 23.0 °F 9.2 °F 18.0 °F 81% 30.19 in 10.0 mi East 17.3 mph - N/A   Overcast
9:41 PM 23.0 °F 11.1 °F 18.0 °F 81% 30.20 in 7.0 mi East 12.7 mph - 0.00 in Snow Light Snow
9:55 PM 21.9 °F 9.8 °F 17.1 °F 82% 30.26 in 8.0 mi East 12.7 mph - 0.00 in Snow Light Snow
10:44 PM 19.0 °F 6.1 °F 15.1 °F 85% 30.23 in 4.0 mi East 12.7 mph - 0.00 in Snow Light Snow
10:55 PM 18.0 °F 6.1 °F 15.1 °F 88% 30.30 in 3.0 mi East 10.4 mph - 0.00 in Snow Light Snow
11:10 PM 17.1 °F 4.3 °F 14.0 °F 88% 30.24 in 2.0 mi East 11.5 mph - 0.00 in Snow Light Snow
11:37 PM 16.0 °F 2.9 °F 12.9 °F 88% 30.25 in 4.0 mi East 11.5 mph - 0.00 in Snow Light Snow
11:55 PM 15.1 °F 1.8 °F 12.0 °F 88% 30.32 in 4.0 mi East 11.5 mph - 0.00 in Snow Light Snow